sim
Sign-in with your pilot id or email,
or register
Callsign
Passwort

Schedule Details

Flight Number: RYR7068 (1)
Departure: Rome Ciampino Airport (LIRA) at 12:20
Arrival: Thessaloniki International Airport (LGTS) at 14:05
Route: Ryanair Passenger Schedule. Enter filed route here before submitting Pirep.

Weather Information
Getting current METAR information for LIRA 230550Z 06004KT 040V100 CAVOK 23/19 Q1018
Getting current METAR information for LGTS 230550Z VRB02KT CAVOK 27/18 Q1019 NOSIG

Schedule Frequency

Route Map